EW1071 Weather Reports


Display with metric or nautical units.
time (UTC)temp
F
wind
direction
speed
MPH
gust
MPH
rain 1hr
in
rain 24hr
in
rain mn
in
humidity
%
barometer
mb
20260505230004 57 111 0.0 0.0 0.00 0.00 0.00 92 1011.7
20260505224502 57 111 0.0 0.0 0.00 0.00 0.00 92 1011.8
20260505223102 57 111 0.0 2.0 0.00 0.00 0.00 92 1012.0
20260505221601 57 111 3.0 6.0 0.00 0.00 0.00 92 1012.1
20260505220100 58 111 0.0 3.0 0.00 0.00 0.00 92 1012.2
20260505214607 58 111 0.0 3.0 0.00 0.00 0.00 92 1012.2
20260505213059 58 111 0.0 3.0 0.00 0.00 0.00 92 1012.5
20260505211602 58 111 0.0 4.0 0.00 0.00 0.00 92 1012.7
20260505210056 58 111 3.0 9.0 0.00 0.00 0.00 92 1012.6
20260505204550 59 111 1.0 4.0 0.00 0.00 0.00 92 1012.5
20260505203053 58 111 0.0 0.0 0.00 0.00 0.00 92 1012.8
20260505201554 58 111 0.0 0.0 0.00 0.00 0.00 91 1012.8
20260505200049 59 111 0.0 0.0 0.00 0.00 0.00 90 1012.7
20260505194549 59 111 0.0 7.0 0.00 0.00 0.00 89 1012.5
20260505193051 60 111 0.0 10.0 0.00 0.00 0.00 89 1012.5
20260505191555 60 112 3.0 15.0 0.00 0.00 0.00 89 1012.3
20260505190103 59 123 6.0 20.0 0.00 0.00 0.00 89 1012.2
20260505184600 59 121 9.0 17.0 0.00 0.00 0.00 90 1012.0
20260505183051 59 84 8.0 16.0 0.00 0.00 0.00 90 1011.8
20260505181546 59 93 7.0 18.0 0.00 0.00 0.00 90 1011.9
20260505180049 59 93 7.0 16.0 0.00 0.00 0.00 90 1011.7
20260505174645 59 99 7.0 17.0 0.00 0.00 0.00 90 1011.4
20260505173045 59 112 5.0 13.0 0.00 0.00 0.00 91 1011.4
20260505171544 59 111 9.0 17.0 0.00 0.00 0.00 91 1011.5
20260505170043 59 109 6.0 18.0 0.00 0.00 0.00 92 1011.5
20260505164542 59 110 3.0 12.0 0.00 0.00 0.00 92 1011.5
20260505163042 59 110 6.0 12.0 0.00 0.00 0.00 91 1011.4
20260505161541 60 110 2.0 13.0 0.00 0.00 0.00 90 1011.2
20260505153039 62 109 3.0 10.0 0.00 0.00 0.00 86 1010.4
20260505151541 62 109 0.0 6.0 0.00 0.00 0.00 85 1010.3
20260505124533 64 107 0.0 0.0 0.00 0.00 0.00 84 1010.0
20260505123045 63 107 0.0 0.0 0.00 0.00 0.00 86 1010.1
20260505121533 63 107 0.0 3.0 0.00 0.00 0.00 87 1010.3
20260505120037 64 107 0.0 0.0 0.00 0.00 0.00 86 1010.5
20260505114532 64 107 0.0 0.0 0.00 0.00 0.00 85 1010.7
20260505113023 64 107 0.0 0.0 0.00 0.00 0.00 84 1010.8
20260505111523 65 107 0.0 0.0 0.00 0.00 0.00 83 1011.0
20260505101520 64 107 0.0 0.0 0.00 0.00 0.00 85 1012.0
20260505100119 64 107 0.0 0.0 0.00 0.00 0.00 86 1012.3
20260505094517 64 107 0.0 0.0 0.00 0.00 0.00 86 1012.5
20260505093016 65 107 0.0 0.0 0.00 0.00 0.00 86 1012.8
20260505091513 63 107 0.0 0.0 0.00 0.00 0.00 88 1013.1
20260505090012 62 107 0.0 0.0 0.00 0.00 0.00 89 1013.3
20260505084514 62 107 0.0 0.0 0.00 0.00 0.00 90 1013.6
20260505083013 62 107 0.0 0.0 0.00 0.00 0.00 89 1013.7
20260505081510 63 107 0.0 0.0 0.00 0.00 0.00 90 1013.9
20260505080006 62 107 0.0 0.0 0.00 0.00 0.00 92 1014.1
20260505074503 61 107 0.0 8.0 0.00 0.00 0.00 92 1014.0
20260505073002 60 107 0.0 0.0 0.00 0.00 0.00 93 1014.0
20260505071600 59 107 0.0 0.0 0.00 0.00 0.00 92 1014.1
20260505070100 59 107 6.0 9.0 0.00 0.00 0.00 93 1014.0
20260505064558 59 107 0.0 0.0 0.00 0.00 0.00 93 1014.1
20260505063100 58 107 0.0 0.0 0.00 0.00 0.00 93 1013.9
20260505061601 58 107 0.0 0.0 0.00 0.00 0.00 94 1014.0
20260505060053 57 107 0.0 0.0 0.00 0.00 0.00 93 1013.7
20260505054556 57 107 0.0 0.0 0.00 0.00 0.00 94 1013.7
20260505053050 57 107 0.0 3.0 0.00 0.00 0.00 94 1013.3
20260505051549 56 107 0.0 4.0 0.00 0.00 0.00 94 1012.8
20260505050120 55 107 3.0 8.0 0.00 0.00 0.00 94 1012.4
20260505041553 55 107 0.0 0.0 0.00 0.00 0.00 93 1011.8
20260505040053 56 107 0.0 1.0 0.00 0.00 0.00 94 1011.7
20260505034543 55 107 0.0 1.0 0.00 0.00 0.00 94 1011.6
20260505033046 56 107 0.0 3.0 0.00 0.00 0.00 94 1011.5
20260505031547 55 107 0.0 6.0 0.00 0.00 0.00 94 1011.4
20260505030043 55 107 1.0 4.0 0.00 0.00 0.00 94 1011.3
20260505024541 55 107 1.0 13.0 0.00 0.00 0.00 94 1011.2
20260505023044 55 107 2.0 11.0 0.00 0.00 0.00 94 1011.1
20260505021541 55 107 4.0 12.0 0.00 0.00 0.00 94 1011.0
20260505020036 55 110 3.0 13.0 0.00 0.00 0.00 94 1010.8
20260505014536 55 117 3.0 13.0 0.00 0.00 0.00 93 1011.0
20260505013028 56 117 1.0 7.0 0.00 0.00 0.00 93 1010.8
20260505011531 56 117 0.0 6.0 0.00 0.00 0.00 93 1011.0
20260505010025 56 117 0.0 7.0 0.00 0.00 0.00 93 1010.9
20260505004533 57 117 0.0 4.0 0.00 0.00 0.00 93 1011.1
20260505003023 57 117 0.0 0.0 0.00 0.00 0.00 93 1011.1
20260505001523 57 117 0.0 0.0 0.00 0.00 0.00 93 1011.2
20260505000028 57 117 0.0 0.0 0.00 0.00 0.00 93 1011.1
20260504234521 57 117 0.0 0.0 0.00 0.00 0.00 93 1011.1
20260504233021 57 117 0.0 1.0 0.00 0.00 0.00 93 1010.9
20260504231519 57 117 0.0 0.0 0.00 0.00 0.00 93 1011.1